Time,TemperatureF,DewpointF,PressureIn,WindDirection,WindDirectionDegrees,WindSpeedMPH,WindSpeedGustMPH,Humidity,HourlyPrecipIn,Conditions,Clouds,dailyrainin,SoftwareType,DateUTC
2014-03-15 00:22:00,38.0,34.0,-100.00,North,0,7.0,21.0,85,-99.99,,,-99.99,,2014-03-15 05:22:00,
2014-03-15 00:33:00,38.0,34.0,-100.00,North,0,7.0,21.0,85,-99.99,,,-99.99,,2014-03-15 05:33:00,
2014-03-15 00:43:00,38.0,34.0,-100.00,North,0,7.0,21.0,85,-99.99,,,-99.99,,2014-03-15 05:43:00,
2014-03-15 00:52:00,38.0,34.0,-100.00,North,0,7.0,21.0,85,-99.99,,,-99.99,,2014-03-15 05:52:00,
2014-03-15 01:22:00,36.0,30.0,-100.00,North,355,5.0,14.0,80,-99.99,,,-99.99,,2014-03-15 06:22:00,
2014-03-15 01:32:00,36.0,30.0,-100.00,North,355,5.0,14.0,80,-99.99,,,-99.99,,2014-03-15 06:32:00,
2014-03-15 01:42:00,36.0,30.0,-100.00,North,355,5.0,14.0,80,-99.99,,,-99.99,,2014-03-15 06:42:00,
2014-03-15 01:53:00,36.0,30.0,-100.00,North,355,5.0,14.0,80,-99.99,,,-99.99,,2014-03-15 06:53:00,
2014-03-15 02:22:00,35.0,28.0,-100.00,North,355,7.0,17.0,78,-99.99,,,-99.99,,2014-03-15 07:22:00,
2014-03-15 02:32:00,35.0,28.0,-100.00,North,355,7.0,17.0,78,-99.99,,,-99.99,,2014-03-15 07:32:00,
2014-03-15 02:42:00,35.0,28.0,-100.00,North,355,7.0,17.0,78,-99.99,,,-99.99,,2014-03-15 07:42:00,
2014-03-15 02:52:00,35.0,28.0,-100.00,North,355,7.0,17.0,78,-99.99,,,-99.99,,2014-03-15 07:52:00,
2014-03-15 03:22:00,34.0,28.0,-100.00,North,355,6.0,12.0,81,-99.99,,,-99.99,,2014-03-15 08:22:00,
2014-03-15 03:32:00,34.0,28.0,-100.00,North,355,6.0,12.0,81,-99.99,,,-99.99,,2014-03-15 08:32:00,
2014-03-15 03:42:00,34.0,28.0,-100.00,North,355,6.0,12.0,81,-99.99,,,-99.99,,2014-03-15 08:42:00,
2014-03-15 03:52:00,34.0,28.0,-100.00,North,355,6.0,12.0,81,-99.99,,,-99.99,,2014-03-15 08:52:00,
2014-03-15 04:22:00,32.0,29.0,-100.00,North,355,3.0,7.0,89,-99.99,,,-99.99,,2014-03-15 09:22:00,
2014-03-15 04:33:00,32.0,29.0,-100.00,North,355,3.0,7.0,89,-99.99,,,-99.99,,2014-03-15 09:33:00,
2014-03-15 04:43:00,32.0,29.0,-100.00,North,355,3.0,7.0,89,-99.99,,,-99.99,,2014-03-15 09:43:00,
2014-03-15 04:53:00,32.0,29.0,-100.00,North,355,3.0,7.0,89,-99.99,,,-99.99,,2014-03-15 09:53:00,
2014-03-15 05:23:00,30.0,28.0,-100.00,North,0,2.0,4.0,93,-99.99,,,-99.99,,2014-03-15 10:23:00,
2014-03-15 05:33:00,30.0,28.0,-100.00,North,0,2.0,4.0,93,-99.99,,,-99.99,,2014-03-15 10:33:00,
2014-03-15 05:43:00,30.0,28.0,-100.00,North,0,2.0,4.0,93,-99.99,,,-99.99,,2014-03-15 10:43:00,
2014-03-15 05:53:00,30.0,28.0,-100.00,North,0,2.0,4.0,93,-99.99,,,-99.99,,2014-03-15 10:53:00,
2014-03-15 06:22:00,29.0,28.0,-100.00,North,0,2.0,4.0,95,-99.99,,,-99.99,,2014-03-15 11:22:00,
2014-03-15 06:33:00,29.0,28.0,-100.00,North,0,2.0,4.0,95,-99.99,,,-99.99,,2014-03-15 11:33:00,
2014-03-15 06:43:00,29.0,28.0,-100.00,North,0,2.0,4.0,95,-99.99,,,-99.99,,2014-03-15 11:43:00,
2014-03-15 06:53:00,29.0,28.0,-100.00,North,0,2.0,4.0,95,-99.99,,,-99.99,,2014-03-15 11:53:00,
2014-03-15 07:22:00,29.0,28.0,-100.00,North,0,0.0,4.0,97,-99.99,,,-99.99,,2014-03-15 12:22:00,
2014-03-15 07:32:00,29.0,28.0,-100.00,North,0,0.0,4.0,97,-99.99,,,-99.99,,2014-03-15 12:32:00,
2014-03-15 07:42:00,29.0,28.0,-100.00,North,0,0.0,4.0,97,-99.99,,,-99.99,,2014-03-15 12:42:00,
2014-03-15 07:52:00,29.0,28.0,-100.00,North,0,0.0,4.0,97,-99.99,,,-99.99,,2014-03-15 12:52:00,
2014-03-15 08:22:00,30.0,29.0,-100.00,North,0,0.0,3.0,97,-99.99,,,-99.99,,2014-03-15 13:22:00,
2014-03-15 08:32:00,30.0,29.0,-100.00,North,0,0.0,3.0,97,-99.99,,,-99.99,,2014-03-15 13:32:00,
2014-03-15 08:42:00,30.0,29.0,-100.00,North,0,0.0,3.0,97,-99.99,,,-99.99,,2014-03-15 13:42:00,
2014-03-15 08:52:00,30.0,29.0,-100.00,North,0,0.0,3.0,97,-99.99,,,-99.99,,2014-03-15 13:52:00,
2014-03-15 09:22:00,30.0,29.0,-100.00,North,0,2.0,6.0,93,-99.99,,,-99.99,,2014-03-15 14:22:00,
2014-03-15 09:32:00,30.0,29.0,-100.00,North,0,2.0,6.0,93,-99.99,,,-99.99,,2014-03-15 14:32:00,
2014-03-15 09:42:00,30.0,29.0,-100.00,North,0,2.0,6.0,93,-99.99,,,-99.99,,2014-03-15 14:42:00,
2014-03-15 09:52:00,30.0,29.0,-100.00,North,0,2.0,6.0,93,-99.99,,,-99.99,,2014-03-15 14:52:00,
2014-03-15 10:22:00,32.0,28.0,-100.00,North,355,2.0,7.0,88,-99.99,,,-99.99,,2014-03-15 15:22:00,
2014-03-15 10:33:00,32.0,28.0,-100.00,North,355,2.0,7.0,88,-99.99,,,-99.99,,2014-03-15 15:33:00,
2014-03-15 10:43:00,32.0,28.0,-100.00,North,355,2.0,7.0,88,-99.99,,,-99.99,,2014-03-15 15:43:00,
2014-03-15 10:54:00,32.0,28.0,-100.00,North,355,2.0,7.0,88,-99.99,,,-99.99,,2014-03-15 15:54:00,
2014-03-15 11:23:00,32.0,28.0,-100.00,North,0,3.0,9.0,83,-99.99,,,-99.99,,2014-03-15 16:23:00,
2014-03-15 11:33:00,32.0,28.0,-100.00,North,0,3.0,9.0,83,-99.99,,,-99.99,,2014-03-15 16:33:00,
2014-03-15 11:43:00,32.0,28.0,-100.00,North,0,3.0,9.0,83,-99.99,,,-99.99,,2014-03-15 16:43:00,
2014-03-15 11:53:00,32.0,28.0,-100.00,North,0,3.0,9.0,83,-99.99,,,-99.99,,2014-03-15 16:53:00,
2014-03-15 12:22:00,33.0,28.0,-100.00,North,355,5.0,9.0,83,-99.99,,,-99.99,,2014-03-15 17:22:00,
2014-03-15 12:33:00,33.0,28.0,-100.00,North,355,5.0,9.0,83,-99.99,,,-99.99,,2014-03-15 17:33:00,
2014-03-15 12:43:00,33.0,28.0,-100.00,North,355,5.0,9.0,83,-99.99,,,-99.99,,2014-03-15 17:43:00,
2014-03-15 12:52:00,33.0,28.0,-100.00,North,355,5.0,9.0,83,-99.99,,,-99.99,,2014-03-15 17:52:00,
2014-03-15 13:22:00,33.0,27.0,-100.00,North,355,6.0,10.0,77,-99.99,,,-99.99,,2014-03-15 18:22:00,
2014-03-15 13:32:00,33.0,27.0,-100.00,North,355,6.0,10.0,77,-99.99,,,-99.99,,2014-03-15 18:32:00,
2014-03-15 13:42:00,33.0,27.0,-100.00,North,355,6.0,10.0,77,-99.99,,,-99.99,,2014-03-15 18:42:00,
2014-03-15 13:52:00,33.0,27.0,-100.00,North,355,6.0,10.0,77,-99.99,,,-99.99,,2014-03-15 18:52:00,
2014-03-15 14:22:00,36.0,29.0,-100.00,North,355,4.0,9.0,76,-99.99,,,-99.99,,2014-03-15 19:22:00,
2014-03-15 14:32:00,36.0,29.0,-100.00,North,355,4.0,9.0,76,-99.99,,,-99.99,,2014-03-15 19:32:00,
2014-03-15 14:42:00,36.0,29.0,-100.00,North,355,4.0,9.0,76,-99.99,,,-99.99,,2014-03-15 19:42:00,
2014-03-15 14:52:00,36.0,29.0,-100.00,North,355,4.0,9.0,76,-99.99,,,-99.99,,2014-03-15 19:52:00,
2014-03-15 15:22:00,36.0,28.0,-100.00,North,355,4.0,9.0,73,-99.99,,,-99.99,,2014-03-15 20:22:00,
2014-03-15 15:32:00,36.0,28.0,-100.00,North,355,4.0,9.0,73,-99.99,,,-99.99,,2014-03-15 20:32:00,
2014-03-15 15:42:00,36.0,28.0,-100.00,North,355,4.0,9.0,73,-99.99,,,-99.99,,2014-03-15 20:42:00,
2014-03-15 15:52:00,36.0,28.0,-100.00,North,355,4.0,9.0,73,-99.99,,,-99.99,,2014-03-15 20:52:00,
2014-03-15 16:22:00,36.0,29.0,-100.00,North,355,2.0,9.0,76,-99.99,,,-99.99,,2014-03-15 21:22:00,
2014-03-15 16:33:00,36.0,29.0,-100.00,North,355,2.0,9.0,76,-99.99,,,-99.99,,2014-03-15 21:33:00,
2014-03-15 16:43:00,36.0,29.0,-100.00,North,355,2.0,9.0,76,-99.99,,,-99.99,,2014-03-15 21:43:00,
2014-03-15 16:53:00,36.0,29.0,-100.00,North,355,2.0,9.0,76,-99.99,,,-99.99,,2014-03-15 21:53:00,
2014-03-15 17:23:00,35.0,30.0,-100.00,North,355,2.0,7.0,84,-99.99,,,-99.99,,2014-03-15 22:23:00,
2014-03-15 17:33:00,35.0,30.0,-100.00,North,355,2.0,7.0,84,-99.99,,,-99.99,,2014-03-15 22:33:00,
2014-03-15 17:42:00,35.0,30.0,-100.00,North,355,2.0,7.0,84,-99.99,,,-99.99,,2014-03-15 22:42:00,
2014-03-15 17:53:00,35.0,30.0,-100.00,North,355,2.0,7.0,84,-99.99,,,-99.99,,2014-03-15 22:53:00,
2014-03-15 18:22:00,33.0,32.0,-100.00,North,0,2.0,9.0,95,-99.99,,,-99.99,,2014-03-15 23:22:00,
2014-03-15 18:33:00,33.0,32.0,-100.00,North,0,2.0,9.0,95,-99.99,,,-99.99,,2014-03-15 23:33:00,
2014-03-15 18:43:00,33.0,32.0,-100.00,North,0,2.0,9.0,95,-99.99,,,-99.99,,2014-03-15 23:43:00,
2014-03-15 18:52:00,33.0,32.0,-100.00,North,0,2.0,9.0,95,-99.99,,,-99.99,,2014-03-15 23:52:00,
2014-03-15 19:22:00,31.0,30.0,-100.00,NNE,20,1.0,5.0,99,-99.99,,,-99.99,,2014-03-16 00:22:00,
2014-03-15 19:32:00,31.0,30.0,-100.00,NNE,20,1.0,5.0,99,-99.99,,,-99.99,,2014-03-16 00:32:00,
2014-03-15 19:42:00,31.0,30.0,-100.00,NNE,20,1.0,5.0,99,-99.99,,,-99.99,,2014-03-16 00:42:00,
2014-03-15 19:53:00,31.0,30.0,-100.00,NNE,20,1.0,5.0,99,-99.99,,,-99.99,,2014-03-16 00:53:00,
2014-03-15 20:22:00,31.0,30.0,-100.00,NNE,25,2.0,3.0,99,-99.99,,,-99.99,,2014-03-16 01:22:00,
2014-03-15 20:32:00,31.0,30.0,-100.00,NNE,25,2.0,3.0,99,-99.99,,,-99.99,,2014-03-16 01:32:00,
2014-03-15 20:42:00,31.0,30.0,-100.00,NNE,25,2.0,3.0,99,-99.99,,,-99.99,,2014-03-16 01:42:00,
2014-03-15 20:52:00,31.0,30.0,-100.00,NNE,25,2.0,3.0,99,-99.99,,,-99.99,,2014-03-16 01:52:00,
2014-03-15 21:22:00,30.0,30.0,-100.00,NNE,25,0.0,1.0,99,-99.99,,,-99.99,,2014-03-16 02:22:00,
2014-03-15 21:32:00,30.0,30.0,-100.00,NNE,25,0.0,1.0,99,-99.99,,,-99.99,,2014-03-16 02:32:00,
2014-03-15 21:42:00,30.0,30.0,-100.00,NNE,25,0.0,1.0,99,-99.99,,,-99.99,,2014-03-16 02:42:00,
2014-03-15 21:52:00,30.0,30.0,-100.00,NNE,25,0.0,1.0,99,-99.99,,,-99.99,,2014-03-16 02:52:00,
2014-03-15 22:22:00,30.0,30.0,-100.00,NNE,25,0.0,0.0,99,-99.99,,,-99.99,,2014-03-16 03:22:00,
2014-03-15 22:33:00,30.0,30.0,-100.00,NNE,25,0.0,0.0,99,-99.99,,,-99.99,,2014-03-16 03:33:00,
2014-03-15 22:43:00,30.0,30.0,-100.00,NNE,25,0.0,0.0,99,-99.99,,,-99.99,,2014-03-16 03:43:00,
2014-03-15 22:53:00,30.0,30.0,-100.00,NNE,25,0.0,0.0,99,-99.99,,,-99.99,,2014-03-16 03:53:00,
2014-03-15 23:23:00,30.0,30.0,-100.00,NNE,25,0.0,1.0,99,-99.99,,,-99.99,,2014-03-16 04:23:00,
2014-03-15 23:34:00,30.0,30.0,-100.00,NNE,25,0.0,1.0,99,-99.99,,,-99.99,,2014-03-16 04:34:00,
2014-03-15 23:43:00,30.0,30.0,-100.00,NNE,25,0.0,1.0,99,-99.99,,,-99.99,,2014-03-16 04:43:00,
2014-03-15 23:53:00,30.0,30.0,-100.00,NNE,25,0.0,1.0,99,-99.99,,,-99.99,,2014-03-16 04:53:00,